Temperature
15 14 14 14 14 13 14 13 13 13 13 13 13 13 13 13 13 13 13 12 12 12 12 12 12 12 12 12 12 13 13 13 13 14 13 13 12 12 12 12 12 12 12
15 14 14 14 14 13 13 13 13 13 13 13 13 13 13 13 13 13 12 12 12 12 12 12 12 12 12 12 12 12 12 12 13 13 13 13 12 12 12 12 12 12 12
14 14 14 14 14 13 13 13 13 13 13 13 13 13 13 12 12 12 12 12 12 12 12 12 12 12 12 12 12 12 12 12 12 12 13 12 12 12 12 12 12 12 12
14 14 14 14 14 13 13 13 13 13 13 13 13 13 13 12 12 12 12 12 12 12 12 12 12 12 12 12 12 12 12 12 12 12 12 12 12 12 12 12 12 12 12
14 14 14 14 14 13 13 13 13 13 13 13 13 13 12 12 13 12 12 12 12 12 12 12 12 12 12 12 12 12 12 12 12 12 13 13 13 12 12 12 12 12 12
14 14 14 13 13 13 13 13 13 13 13 13 13 13 13 13 13 13 12 12 12 12 12 12 12 12 12 12 12 12 12 12 12 12 12 12 12 12 12 12 12 12 12
14 14 13 13 13 13 13 13 13 13 13 13 13 13 13 13 13 13 13 12 12 12 12 12 12 12 12 12 12 12 12 12 12 12 12 12 11 12 11 11 11 11 12
14 14 13 13 13 13 13 13 13 13 13 13 13 13 13 13 13 13 13 13 12 12 12 12 12 12 12 12 12 12 12 12 12 12 12 11 11 11 11 11 11 11 11
14 14 13 13 13 13 13 13 13 13 13 13 13 13 13 13 13 13 13 13 12 12 12 12 12 12 12 12 12 11 12 12 12 12 12 12 12 12 11 11 11 11 12
14 14 13 13 13 13 13 13 13 13 13 13 13 13 13 13 13 13 13 12 12 12 12 12 12 12 12 12 12 12 11 12 12 12 12 12 11 11 11 11 11 11 11
14 14 13 13 13 13 13 13 13 13 13 13 13 13 13 13 13 13 13 13 12 12 13 12 12 12 12 12 12 12 12 12 11 11 11 11 11 11 11 11 11 11 11
14 13 13 13 13 13 13 13 13 13 13 13 13 13 13 13 13 13 13 13 13 12 13 13 12 12 12 12 12 12 12 12 12 12 12 12 11 11 11 11 11 11 11
13 13 13 13 13 13 13 13 13 13 13 14 14 14 13 13 13 13 13 13 13 13 13 13 12 12 12 12 12 12 12 12 12 12 12 12 11 11 11 11 11 11 11
13 13 13 13 13 13 13 13 13 13 13 14 14 14 14 13 13 13 13 13 13 13 13 13 13 12 12 12 12 12 12 12 12 12 12 11 11 11 11 11 11 10 10
13 13 13 13 13 13 13 13 13 13 13 13 13 13 13 13 13 13 13 13 13 13 13 13 12 12 12 12 12 12 12 12 12 12 12 11 11 11 11 11 11 10 11
13 13 13 13 13 13 13 13 13 13 13 13 13 13 13 13 13 13 13 13 13 13 13 13 13 13 13 13 12 12 12 12 12 12 12 12 11 11 11 11 11 10 11
13 13 13 13 13 13 13 13 13 13 13 13 13 13 13 13 13 13 13 13 13 13 13 12 13 13 12 12 12 12 12 12 12 12 12 12 11 11 11 11 11 11 11
12 13 13 13 13 13 13 13 13 13 13 13 13 13 13 13 13 13 13 13 13 12 12 12 12 13 12 12 12 13 12 12 12 12 12 12 11 11 11 11 11 11 10
12 13 12 13 13 13 13 13 13 13 13 13 13 13 13 13 12 12 12 12 12 12 12 12 12 12 12 12 12 12 12 12 12 12 12 11 11 11 11 11 11 11 10
12 12 12 12 13 13 13 13 13 13 13 13 13 13 13 13 13 12 12 12 12 12 12 12 12 12 12 12 12 12 12 12 12 12 12 11 11 11 11 11 11 11 11
13 13 12 12 13 13 13 13 13 13 13 13 13 13 13 13 13 12 12 12 12 12 12 12 12 12 12 12 12 12 12 12 12 12 12 11 11 11 11 11 11 11 10
13 13 13 13 13 13 13 13 13 13 13 13 13 13 13 13 12 13 13 12 12 12 12 12 12 12 12 12 12 12 12 12 12 12 11 11 11 11 11 11 11 10 10
13 13 13 13 13 13 13 13 13 13 13 13 13 13 13 13 13 13 12 12 12 12 12 12 12 12 12 12 12 12 12 12 12 11 11 11 11 11 11 10 10 10 10
12 13 13 13 12 13 13 13 13 13 13 13 13 13 13 13 13 13 12 12 12 12 12 12 12 12 12 12 12 12 12 11 11 11 11 11 11 10 10 10 10 10 10
12 12 12 12 12 12 12 12 12 12 12 13 12 13 13 13 12 12 12 12 12 12 12 12 12 12 12 12 11 11 11 11 11 11 11 10 10 10 10 10 10 9 9
12 12 12 12 12 12 12 12 12 12 12 12 12 12 12 12 12 12 12 12 12 12 12 11 11 11 11 11 11 11 11 11 11 11 10 10 10 10 9 9 9 9 9
Wind_Speed
7 6 5 5 5 5 5 4 4 3 3 4 4 3 4 4 4 3 3 3 4 3 3 4 3 3 3 3 3 4 4 4 5 3 2 2 3 4 3 4 5 6 5
7 7 6 6 6 5 5 4 4 4 4 4 3 4 4 4 4 4 4 3 4 4 4 4 4 4 4 4 4 5 4 4 5 4 3 3 3 4 3 5 4 5 5
8 7 7 7 6 6 5 4 4 4 4 3 3 4 4 5 5 5 4 4 4 4 4 5 5 5 5 4 4 4 4 4 4 5 4 3 4 3 4 4 4 4 6
7 7 7 7 6 5 5 5 5 5 4 4 4 4 5 5 5 5 5 5 5 5 5 5 5 5 5 5 5 5 5 5 4 5 4 4 3 3 4 4 4 4 5
7 6 6 6 6 5 5 5 5 5 5 5 4 4 5 5 4 5 5 5 5 5 5 5 5 4 4 5 5 5 5 5 5 5 5 4 3 3 4 4 4 5 4
7 6 6 6 6 5 5 5 5 5 4 4 5 5 5 4 3 2 4 5 5 5 5 5 5 6 6 8 7 6 6 7 6 6 5 5 4 5 4 5 4 5 4
7 6 6 6 5 5 5 5 5 5 4 4 4 5 5 3 5 5 5 5 6 5 6 5 5 3 5 6 7 9 9 9 8 7 7 6 6 5 5 6 5 6 6
7 6 6 6 5 5 4 4 4 4 4 4 4 5 5 5 6 6 6 7 6 6 7 6 6 5 5 6 7 7 7 7 7 8 7 7 6 5 5 7 7 6 6
7 6 6 6 6 5 5 4 4 4 4 5 5 5 5 5 7 7 7 6 6 7 7 7 7 6 4 5 7 7 7 6 6 6 6 6 6 6 6 5 5 5 5
7 6 6 5 5 6 5 5 4 4 5 5 5 5 6 5 7 9 8 6 6 6 6 6 7 7 6 6 7 7 7 6 5 5 6 8 8 8 9 8 7 6 5
6 5 5 5 5 5 4 4 4 4 4 5 5 5 6 6 7 9 9 6 5 5 5 5 4 8 8 8 8 7 6 5 6 7 6 6 6 5 6 6 6 6 6
5 5 5 5 5 4 4 4 4 4 5 5 5 5 5 5 5 8 10 9 6 5 5 5 2 7 7 8 8 6 5 6 7 6 6 6 5 5 4 5 5 5 6
5 5 5 5 5 4 4 4 4 4 4 5 5 4 4 4 5 8 10 9 8 6 4 1 1 6 6 7 9 9 8 7 7 6 6 5 5 4 4 4 5 5 6
5 5 5 5 5 5 5 5 4 4 4 4 4 4 4 3 3 4 5 6 7 6 5 4 7 8 8 6 5 7 8 7 6 6 6 5 4 4 4 4 4 4 5
5 5 5 5 5 5 5 4 5 4 3 4 4 4 4 4 1 1 2 3 3 2 3 4 4 4 5 5 5 6 6 6 6 6 5 5 5 5 5 4 4 5 5
5 5 4 4 4 5 5 4 3 4 2 3 4 5 3 1 1 2 2 2 1 2 3 4 5 5 5 5 5 6 6 6 6 6 6 6 5 5 5 5 5 5 5
5 4 4 4 4 5 5 5 5 5 6 7 7 6 6 3 2 4 4 3 4 5 5 5 5 4 5 5 5 5 5 5 4 5 5 5 5 5 5 5 5 5 6
5 5 5 5 5 5 5 5 6 6 5 5 7 9 8 7 6 5 5 4 3 5 6 6 5 5 5 5 5 5 4 4 5 5 5 5 5 5 5 5 5 5 5
5 5 4 4 5 5 5 5 6 6 6 5 4 5 7 7 7 7 7 5 5 5 6 6 5 5 5 5 5 5 5 5 4 5 5 6 6 6 5 5 5 5 5
5 5 5 5 5 5 5 5 5 5 5 5 5 4 3 4 4 4 5 6 6 5 5 5 5 5 4 5 5 5 5 5 5 5 6 6 6 6 6 6 6 5 5
5 5 7 7 6 5 4 5 5 5 5 5 5 3 3 5 5 5 5 6 6 5 5 5 5 5 5 5 6 6 6 5 5 5 5 5 5 6 6 6 6 6 6
6 5 6 5 5 5 5 5 5 5 5 6 5 4 7 6 6 5 5 5 5 5 5 5 5 5 5 5 5 5 5 5 5 5 5 5 5 5 6 6 6 6 5
7 6 5 5 5 4 6 6 5 5 5 6 6 4 4 5 5 5 5 5 5 5 5 5 5 5 5 4 4 5 5 5 5 5 5 5 5 5 5 6 6 6 6
6 6 5 5 5 5 5 5 5 5 5 6 6 5 5 5 6 5 5 4 5 5 5 5 5 5 5 4 4 4 4 3 4 5 6 6 6 6 5 6 6 7 6
5 5 5 5 5 5 5 5 5 5 5 5 5 5 5 5 5 5 5 5 5 5 5 5 4 5 5 5 4 2 1 1 1 4 4 5 6 6 5 6 5 5 5
5 5 5 5 4 4 4 5 5 5 5 5 5 5 6 6 5 5 5 4 4 4 4 4 4 5 5 4 3 2 3 2 2 4 5 5 5 5 5 5 6 5 5
Wind_Direction
183 182 176 181 189 196 198 202 203 204 202 206 204 193 192 190 189 196 214 205 210 210 215 211 219 243 240 235 237 245 248 257 265 265 242 205 213 243 243 250 238 230 201
181 179 181 187 190 195 194 192 194 199 202 201 202 199 197 198 201 207 214 206 210 213 216 218 224 221 232 241 245 249 250 251 258 263 262 241 230 228 238 250 248 240 232
181 182 184 191 193 195 198 195 194 198 204 207 204 204 204 206 208 212 213 213 217 222 220 220 227 228 234 236 247 253 251 244 246 255 257 253 244 233 238 244 245 247 243
180 183 185 188 192 195 197 198 200 204 210 212 212 211 213 214 210 208 212 215 221 225 225 225 227 231 236 243 243 246 252 253 246 252 255 251 243 240 243 254 255 243 248
179 184 185 184 187 194 201 200 200 205 210 212 215 220 221 218 211 210 213 216 223 230 230 231 229 225 239 250 257 254 252 251 251 254 258 260 260 259 257 263 267 269 246
180 183 181 184 189 196 201 199 202 205 212 213 214 217 222 223 144 192 238 224 227 232 235 239 235 219 216 222 236 247 256 251 255 260 261 267 269 266 272 269 272 273 272
178 182 182 186 190 196 200 199 203 205 209 219 223 222 224 207 165 189 225 233 233 236 240 245 253 243 227 236 220 219 230 233 240 254 262 270 273 272 270 267 261 264 276
176 181 182 187 190 196 201 205 208 209 212 221 227 228 226 209 180 196 215 230 239 240 241 240 245 249 244 243 242 237 237 229 225 234 253 262 274 279 268 265 267 263 256
180 182 185 189 190 193 199 203 205 209 215 222 224 224 226 216 190 195 216 234 235 238 238 234 235 237 197 227 238 241 244 243 223 220 241 255 270 266 262 262 257 254 264
184 184 182 188 193 198 200 206 209 215 220 226 224 224 225 227 192 196 212 238 237 238 230 225 218 223 195 208 230 238 242 251 254 237 228 234 239 235 224 235 253 257 265
181 182 181 186 194 195 193 200 212 221 224 232 231 229 229 227 198 193 206 233 242 243 241 234 214 176 198 215 234 241 245 258 255 248 243 239 232 225 223 226 240 250 261
183 188 192 194 198 188 195 207 217 228 226 227 228 234 229 217 207 189 198 224 259 252 252 255 214 167 197 219 232 236 236 244 246 246 246 243 239 235 226 229 231 247 260
191 195 201 203 204 199 207 211 216 226 241 236 231 235 235 219 189 179 196 213 229 245 258 315 197 185 208 225 228 226 225 232 235 242 246 248 248 239 225 217 218 224 239
191 197 203 208 211 206 221 224 229 232 243 250 249 248 242 223 215 190 200 205 208 228 249 214 198 211 228 243 229 219 227 232 236 243 248 246 246 235 228 226 226 226 240
199 203 210 217 220 219 224 232 236 242 254 264 266 264 258 244 193 81 249 239 240 238 237 235 229 220 221 223 227 233 234 227 229 237 236 235 234 238 239 234 234 241 248
208 212 218 218 220 230 227 224 219 247 196 228 267 284 279 307 105 172 218 253 248 201 226 237 237 237 240 240 237 235 228 229 231 233 231 234 236 238 241 240 235 241 252
220 225 234 233 230 234 234 235 237 228 224 226 226 235 252 274 241 230 220 206 199 183 217 243 244 247 252 250 247 245 240 228 222 230 234 237 239 240 244 244 243 245 250
229 225 234 239 238 237 237 239 241 242 235 231 217 215 216 220 224 221 200 181 206 206 234 246 247 246 249 249 249 246 244 232 222 230 236 238 238 241 246 249 247 247 250
231 235 237 246 247 243 242 243 246 247 249 251 245 205 197 199 201 200 190 220 242 240 243 246 248 248 248 249 251 247 242 238 235 234 237 238 240 241 245 248 249 234 241
224 223 233 243 245 244 241 240 241 244 247 248 250 248 208 216 226 207 211 232 243 248 252 252 252 252 248 248 246 243 238 236 234 234 237 237 242 246 248 248 253 247 239
229 214 209 231 239 242 246 247 244 246 249 252 253 248 213 239 241 234 232 235 240 245 249 252 253 248 242 240 244 242 241 241 239 242 243 238 241 246 253 255 253 252 248
237 234 226 232 237 238 240 244 245 246 249 254 256 223 186 232 245 242 237 239 244 246 246 244 247 249 248 245 246 249 246 245 248 248 249 247 245 247 251 254 257 255 248
234 234 233 234 238 231 237 242 241 246 251 253 255 255 230 240 246 245 246 246 244 247 249 246 249 252 252 248 245 241 244 248 252 255 251 249 250 251 252 253 258 258 252
234 236 236 235 237 239 242 245 246 249 253 256 257 257 257 251 253 252 250 251 248 245 242 242 246 250 250 248 249 251 251 259 263 255 248 250 252 255 255 252 253 253 250
238 238 236 233 234 239 242 244 249 253 255 257 259 259 258 254 249 245 239 239 241 243 242 237 232 234 235 236 243 255 74 69 276 266 237 240 249 255 259 260 260 260 255
240 242 243 239 236 242 245 245 247 254 260 263 260 258 257 253 250 248 244 240 240 238 236 233 224 225 226 226 221 144 125 149 213 259 254 240 244 249 256 259 261 256 253
Height
1501 1502 1503 1504 1506 1507 1508 1509 1510 1511 1511 1512 1512 1512 1513 1513 1514 1514 1515 1515 1516 1516 1517 1518 1518 1519 1520 1521 1522 1522 1523 1524 1523 1523 1523 1523 1522 1522 1522 1522 1522 1522 1522
1499 1500 1501 1502 1504 1505 1506 1507 1508 1509 1509 1510 1510 1511 1511 1512 1512 1512 1513 1513 1514 1515 1515 1516 1516 1517 1518 1519 1519 1520 1521 1521 1521 1521 1521 1521 1520 1520 1520 1519 1520 1520 1520
1497 1498 1499 1500 1502 1503 1504 1505 1506 1507 1508 1508 1508 1509 1509 1510 1510 1511 1511 1512 1512 1513 1513 1514 1514 1515 1516 1516 1517 1518 1518 1519 1519 1519 1519 1519 1519 1518 1518 1518 1517 1517 1517
1495 1496 1497 1498 1500 1501 1502 1503 1504 1505 1505 1506 1507 1507 1507 1508 1508 1509 1509 1510 1510 1510 1511 1512 1512 1513 1514 1514 1515 1515 1516 1516 1517 1517 1517 1516 1516 1516 1516 1516 1515 1515 1514
1493 1495 1496 1497 1498 1499 1500 1501 1502 1503 1504 1504 1504 1504 1505 1505 1506 1506 1507 1507 1508 1508 1509 1509 1510 1510 1511 1511 1513 1513 1513 1514 1514 1515 1515 1514 1514 1513 1513 1513 1512 1512 1511
1491 1493 1494 1495 1496 1497 1498 1499 1500 1500 1501 1502 1502 1502 1503 1503 1503 1503 1504 1505 1505 1506 1507 1508 1508 1508 1508 1509 1509 1510 1510 1511 1512 1512 1512 1512 1511 1511 1510 1510 1510 1509 1509
1489 1491 1492 1493 1495 1496 1497 1497 1497 1498 1498 1499 1499 1500 1500 1501 1501 1501 1502 1502 1503 1504 1504 1505 1506 1507 1506 1507 1507 1507 1507 1508 1508 1509 1509 1509 1508 1508 1507 1507 1506 1506 1505
1487 1489 1490 1492 1493 1494 1494 1495 1495 1496 1496 1496 1497 1498 1498 1498 1498 1499 1499 1500 1500 1501 1502 1502 1503 1503 1504 1504 1504 1505 1505 1505 1505 1505 1505 1505 1505 1504 1504 1504 1503 1502 1501
1486 1487 1488 1490 1491 1492 1492 1493 1493 1493 1494 1494 1495 1495 1495 1496 1496 1496 1497 1497 1498 1498 1499 1500 1500 1500 1500 1500 1501 1502 1502 1503 1502 1502 1502 1501 1501 1501 1501 1500 1500 1500 1499
1484 1486 1487 1488 1489 1490 1490 1490 1491 1491 1491 1492 1493 1493 1493 1493 1494 1494 1494 1495 1496 1497 1497 1497 1497 1497 1498 1498 1498 1499 1499 1500 1500 1499 1498 1498 1498 1498 1497 1497 1497 1497 1496
1483 1484 1486 1486 1487 1488 1488 1488 1489 1489 1490 1490 1490 1491 1491 1491 1491 1492 1492 1493 1494 1494 1495 1495 1495 1494 1495 1495 1495 1496 1496 1496 1496 1496 1496 1495 1495 1495 1494 1494 1494 1494 1493
1481 1482 1484 1484 1485 1486 1486 1486 1487 1487 1487 1488 1488 1488 1489 1489 1489 1489 1489 1490 1491 1491 1492 1493 1492 1492 1492 1492 1493 1493 1493 1493 1493 1493 1493 1493 1492 1492 1492 1491 1490 1490 1489
1479 1480 1481 1482 1483 1484 1484 1485 1485 1485 1485 1486 1486 1486 1487 1487 1486 1486 1487 1487 1488 1488 1489 1489 1489 1489 1489 1489 1490 1490 1490 1490 1490 1490 1490 1490 1490 1489 1488 1488 1487 1487 1486
1477 1478 1479 1480 1481 1482 1482 1483 1483 1483 1483 1483 1483 1484 1484 1484 1484 1484 1484 1485 1485 1485 1486 1486 1486 1486 1486 1487 1487 1487 1487 1487 1487 1487 1487 1487 1487 1486 1486 1485 1485 1484 1484
1475 1476 1477 1478 1479 1479 1480 1480 1480 1480 1480 1480 1480 1481 1481 1481 1481 1481 1482 1482 1483 1483 1483 1483 1484 1484 1484 1484 1484 1484 1484 1484 1484 1484 1483 1483 1483 1483 1483 1482 1482 1481 1481
1472 1473 1475 1475 1476 1476 1477 1477 1477 1477 1477 1477 1477 1477 1478 1478 1478 1478 1479 1479 1479 1480 1480 1480 1481 1481 1481 1481 1481 1481 1481 1481 1480 1480 1480 1480 1480 1479 1479 1479 1479 1478 1477
1470 1471 1472 1473 1473 1473 1474 1474 1474 1474 1474 1474 1474 1474 1474 1474 1475 1475 1475 1476 1476 1476 1477 1477 1478 1478 1478 1478 1478 1478 1478 1478 1477 1477 1477 1477 1476 1476 1476 1476 1475 1474 1474
1468 1469 1469 1470 1470 1470 1471 1471 1471 1471 1471 1471 1471 1471 1471 1471 1471 1471 1472 1472 1472 1473 1473 1474 1474 1474 1475 1475 1474 1475 1475 1474 1474 1474 1473 1473 1473 1473 1472 1472 1472 1471 1471
1465 1466 1466 1467 1467 1467 1468 1468 1468 1468 1468 1468 1468 1468 1467 1467 1467 1468 1468 1469 1469 1469 1470 1470 1471 1471 1471 1471 1471 1471 1471 1471 1471 1470 1470 1470 1470 1470 1469 1469 1468 1467 1467
1461 1462 1463 1463 1464 1464 1465 1465 1465 1465 1465 1465 1465 1465 1464 1464 1464 1464 1465 1465 1465 1466 1466 1467 1467 1467 1467 1468 1468 1468 1468 1468 1468 1467 1467 1467 1466 1466 1466 1465 1465 1464 1463
1459 1459 1459 1460 1461 1461 1462 1462 1462 1462 1462 1461 1462 1461 1461 1461 1461 1461 1461 1461 1462 1462 1463 1463 1463 1464 1464 1464 1464 1464 1464 1464 1464 1464 1464 1463 1463 1462 1462 1461 1461 1461 1460
1456 1456 1456 1457 1458 1458 1458 1458 1458 1458 1458 1458 1459 1458 1457 1458 1458 1458 1458 1458 1459 1459 1460 1460 1460 1461 1461 1461 1461 1461 1461 1461 1461 1461 1460 1460 1459 1458 1458 1458 1457 1457 1457
1452 1453 1453 1453 1454 1454 1455 1455 1455 1455 1455 1455 1456 1455 1455 1455 1455 1455 1455 1455 1455 1455 1456 1456 1456 1457 1457 1457 1457 1457 1457 1457 1457 1457 1456 1456 1455 1455 1454 1454 1453 1453 1453
1449 1449 1449 1450 1450 1450 1451 1452 1452 1452 1452 1452 1452 1452 1452 1452 1452 1452 1452 1451 1451 1452 1452 1452 1452 1452 1452 1453 1453 1453 1453 1453 1453 1453 1452 1452 1452 1451 1451 1450 1450 1449 1449
1445 1446 1446 1446 1447 1447 1447 1448 1448 1448 1449 1449 1449 1449 1449 1449 1448 1449 1448 1448 1448 1447 1447 1447 1447 1447 1448 1448 1448 1448 1448 1448 1448 1448 1448 1448 1448 1447 1447 1447 1446 1446 1445
1442 1443 1443 1443 1443 1444 1444 1444 1445 1445 1445 1445 1445 1445 1445 1445 1445 1445 1445 1444 1444 1443 1443 1443 1443 1444 1444 1444 1444 1444 1444 1444 1444 1444 1444 1444 1444 1444 1443 1443 1442 1442 1441